Weather in Semenovka

Russia / Tambov Oblast     52°11′18″N   41°05′44″E
temp.,
°C
wind,
m/s
gust,
m/s
humid.,
%
clouds,
%
prec.,
mm/h
press.,
hPa
HPBL,
m
22 may, sun
sun2200:00+9se3778100 0.0 1004248
03:00+7e4792100 1.4 1002201
06:00+7e5995100 1.8 999325
09:00+7e61095100 5.0 998420
12:00+9e6991100 0.2 998569
15:00+8ene5993100 2.1 997505
18:00+10se4789100 4.6 998343
21:00+8nne2294100 5.3 99945
23 may, mon
mon2300:00+7nne5118786 0.2 1000364
03:00+3nne510915 0.2 1002240
06:00+2n59855 0.0 1004347
09:00+6n67619 0.0 10051169
12:00+9nnw675282 0.0 10051653
15:00+8nnw5755100 0.0 10061570
18:00+9nnw4762100 0.0 10071349
21:00+5wsw33735 0.0 100725
24 may, tue
tue2400:00+4sw488410 0.0 1007134
03:00+3wsw410932 0.0 1007169
06:00+5w411805 0.0 1007281
09:00+11w6960100 0.0 1007683
12:00+13w71057100 0.1 10071877
15:00+14wnw7104589 0.1 10072413
18:00+11nnw4761100 0.0 10091445
21:00+8nne357498 0.1 1011120
25 may, wed
wed2500:00+4nnw368525 0.0 1012113
03:00+2nnw35915 0.0 101387
06:00+4nnw35835 0.0 1015210
09:00+8nnw456239 0.0 10151294
12:00+9nw4558100 0.1 10161544
15:00+9nw3459100 0.1 10161254
18:00+9nnw3468100 0.0 1017780
21:00+5nnw2278100 0.0 101811
26 may, thu
thu2600:00+6w2274100 0.0 101734
03:00+4wsw228555 0.0 101726
06:00+7ssw367987 0.0 1015205
09:00+13sw567998 0.3 1013571
12:00+19wsw7105810 0.6 10111552
15:00+18sw91266100 1.1 10091077
18:00+16wsw81469100 1.1 1007852
21:00+10sw81496100 2.4 1006803